EW7293 Weather Reports


time (UTC)temp
C
wind
direction
speed
KPH
gust
KPH
rain 1hr
cm
rain 24hr
cm
rain mn
cm
humidity
%
barometer
mb
20260505034604 25 263 3.2 16.1 0.00 0.00 0.00 31 1004.6
20260505033105 25 291 3.2 12.9 0.00 0.00 0.00 30 1004.3
20260505031558 26 275 0.0 16.1 0.00 0.00 0.00 29 1004.1
20260505030057 26 288 0.0 11.3 0.00 0.00 0.00 28 1003.9
20260505024539 27 300 0.0 17.7 0.00 0.00 0.00 27 1003.7
20260505023040 28 279 0.0 16.1 0.00 0.00 0.00 26 1003.5
20260505021519 29 320 0.0 20.9 0.00 0.00 0.00 24 1003.5
20260505020025 30 273 0.0 1.6 0.00 0.00 0.00 23 1003.4
20260505014608 29 65 0.0 0.0 0.00 0.00 0.00 25 1003.3
20260505013103 29 295 0.0 4.8 0.00 0.00 0.00 24 1003.4
20260505011545 29 289 0.0 12.9 0.00 0.00 0.00 23 1003.4
20260505010055 29 296 0.0 14.5 0.00 0.00 0.00 23 1003.5
20260505004522 30 300 6.4 20.9 0.00 0.00 0.00 23 1003.5
20260505003021 30 270 1.6 19.3 0.00 0.00 0.00 22 1003.6
20260505001502 31 195 0.0 3.2 0.00 0.00 0.00 20 1003.6
20260505000108 31 269 0.0 4.8 0.00 0.00 0.00 21 1003.6
20260504234541 30 303 6.4 14.5 0.00 0.00 0.00 22 1003.7
20260504233040 30 250 4.8 16.1 0.00 0.00 0.00 20 1003.8
20260504231522 30 220 0.0 17.7 0.00 0.00 0.00 21 1003.9
20260504230021 30 254 0.0 6.4 0.00 0.00 0.00 20 1004.1
20260504224502 30 263 9.7 16.1 0.00 0.00 0.00 19 1004.3
20260504223002 30 281 0.0 19.3 0.00 0.00 0.00 19 1004.4
20260504221542 31 151 0.0 1.6 0.00 0.00 0.00 19 1004.6
20260504220047 31 167 0.0 9.7 0.00 0.00 0.00 19 1004.8
20260504214520 30 160 0.0 4.8 0.00 0.00 0.00 19 1005.0
20260504213017 30 244 0.0 3.2 0.00 0.00 0.00 19 1005.2
20260504211557 29 292 0.0 3.2 0.00 0.00 0.00 20 1005.4
20260504204541 29 162 0.0 4.8 0.00 0.00 0.00 20 1005.8
20260504203035 29 292 1.6 14.5 0.00 0.00 0.00 21 1005.9
20260504201515 30 307 0.0 3.2 0.00 0.00 0.00 21 1006.1
20260504200012 29 92 0.0 4.8 0.00 0.00 0.00 22 1006.3
20260504194556 28 266 0.0 0.0 0.00 0.00 0.00 24 1006.3
20260504193102 28 287 0.0 0.0 0.00 0.00 0.00 24 1006.5
20260504191529 28 224 0.0 0.0 0.00 0.00 0.00 24 1006.6
20260504190029 27 287 0.0 12.9 0.00 0.00 0.00 26 1006.9
20260504184507 27 259 6.4 20.9 0.00 0.00 0.00 26 1006.9
20260504183002 26 252 0.0 14.5 0.00 0.00 0.00 26 1007.1
20260504181541 26 249 0.0 20.9 0.00 0.00 0.00 27 1007.1
20260504180105 26 184 0.0 12.9 0.00 0.00 0.00 28 1007.2
20260504174520 25 251 0.0 14.5 0.00 0.00 0.00 30 1007.2
20260504173015 24 203 0.0 12.9 0.00 0.00 0.00 30 1007.3
20260504171553 23 238 0.0 17.7 0.00 0.00 0.00 31 1007.4
20260504120109 11 103 0.0 0.0 0.00 0.00 0.00 70 1007.2
20260504081523 13 109 0.0 0.0 0.00 0.00 0.00 63 1007.3
20260504044537 20 106 0.0 11.3 0.00 0.00 0.00 42 1007.3
20260504043024 20 95 0.0 0.0 0.00 0.00 0.00 41 1007.2
20260504041514 21 95 0.0 0.0 0.00 0.00 0.00 40 1007.0
20260504040103 21 71 0.0 0.0 0.00 0.00 0.00 40 1007.0